User: anonymous   Login
Location: Oshawa
(43.9000°N, 78.8670°W)
Time: 10:22:22
(UTC-04:00)
Language:

Cosmos 1500 - Orbit

View from above orbital plane
View from above orbital plane
View from above satellite
View from above satellite

Ground track
Ground track

The orbit data is extracted from the following two-line orbital elements,

1 14372U 83099A   17084.91785979 +.00001199 +00000-0 +58440-4 0  9996
2 14372 082.5139 065.8609 0016234 021.2966 039.8373 15.17275087824878
Epoch (UTC): 25 March 2017 22:01:43
Eccentricity: 0.0016234
inclination: 82.5139°
perigee height: 503 km
apogee height: 525 km
right ascension of ascending node: 65.8609°
argument of perigee: 21.2966°
revolutions per day: 15.17275087
mean anomaly at epoch: 39.8373°
orbit number at epoch: 82487

The dashed part of the orbit path shows where the satellite is in the earth's shadow,  

DLR